This is the latest recevied weather packets stored in our database for station/object WA3NOA-2. If no packets are shown the sender has not sent any weather packets the latest 1 day(s).
| Time | Temp. | Humidity | Pressure | Rain* | Wind** | Luminosity | Snow |
|---|---|---|---|---|---|---|---|
| 1778025426 | 23.89° C | 43% | 1002.7 hPa | 0 mm | 1.34 m/s, 265° | - | - |
| 1778025126 | 23.89° C | 43% | 1002.6 hPa | 0 mm | 0.45 m/s, 269° | - | - |
| 1778024887 | 23.89° C | 43% | 1002.5 hPa | 0 mm | 0 m/s | - | - |
| 1778024826 | 23.89° C | 43% | 1002.6 hPa | 0 mm | 2.68 m/s, 230° | - | - |
| 1778024526 | 24.44° C | 43% | 1002.6 hPa | 0 mm | 2.68 m/s, 275° | - | - |
| 1778024226 | 24.44° C | 42% | 1002.5 hPa | 0 mm | 3.13 m/s, 252° | - | - |
| 1778023988 | 24.44° C | 42% | 1002.5 hPa | 0 mm | 3.58 m/s, 262° | - | - |
| 1778023926 | 24.44° C | 42% | 1002.4 hPa | 0 mm | 3.58 m/s, 233° | - | - |
| 1778023626 | 24.44° C | 42% | 1002.5 hPa | 0 mm | 0.89 m/s, 275° | - | - |
| 1778023326 | 24.44° C | 42% | 1002.6 hPa | 0 mm | 4.02 m/s, 261° | - | - |
| 1778023088 | 24.44° C | 42% | 1002.5 hPa | 0 mm | 0.89 m/s, 266° | - | - |
| 1778023026 | 24.44° C | 42% | 1002.5 hPa | 0 mm | 0.89 m/s, 335° | - | - |
| 1778022726 | 25° C | 41% | 1002.5 hPa | 0 mm | 1.79 m/s, 283° | - | - |
| 1778022426 | 25° C | 41% | 1002.5 hPa | 0 mm | 2.24 m/s, 252° | - | - |
| 1778022187 | 25° C | 41% | 1002.6 hPa | 0 mm | 5.81 m/s, 252° | - | - |
| 1778022126 | 25° C | 41% | 1002.5 hPa | 0 mm | 1.79 m/s, 280° | - | - |
| 1778021826 | 25° C | 42% | 1002.5 hPa | 0 mm | 2.68 m/s, 279° | - | - |
| 1778021526 | 25° C | 42% | 1002.5 hPa | 0 mm | 4.92 m/s, 255° | - | - |
| 1778021287 | 25° C | 42% | 1002.4 hPa | 0 mm | 3.13 m/s, 259° | - | - |
| 1778021226 | 25° C | 42% | 1002.4 hPa | 0 mm | 0.45 m/s, 250° | - | - |
| 1778020926 | 25° C | 42% | 1002.3 hPa | 0 mm | 4.92 m/s, 205° | - | - |
| 1778020626 | 25° C | 42% | 1002.4 hPa | 0 mm | 3.58 m/s, 276° | - | - |
| 1778020387 | 25° C | 42% | 1002.4 hPa | 0 mm | 1.34 m/s, 259° | - | - |
| 1778020326 | 25° C | 42% | 1002.4 hPa | 0 mm | 1.34 m/s, 275° | - | - |
| 1778020026 | 25° C | 41% | 1002.5 hPa | 0 mm | 4.02 m/s, 244° | - | - |
* Rain latest hour (hover to see other rain measurements)
** Current wind speed in m/s (hover to see current wind gust speed)